Regional Weather Roundup
Issued by NWS

Home | Current Version | Previous Version | Graphics & Text | Print | Product List | Glossary On
Versions: 1 2 3 4 5 6 7 8 9 10 11 12 13 14 15 16 17 18 19 20 21 22 23 24 25 26 27 28 29 30 31 32 33 34 35 36 37 38 39 40 41 42 43 44 45 46 47 48 49 50
000
ASUS44 KMEG 050810
RWRTN
TENNESSEE HOURLY STATE WEATHER ROUNDUP
NATIONAL WEATHER SERVICE MEMPHIS TN
300 AM CDT THU MAY 05 2016

TNZ002-004-019-021-049-052-054-088>092-050900-
WEST TENNESSEE

CITY           SKY/WX    TMP DP  RH WIND       PRES   REMARKS
MEMPHIS INTL   CLEAR     56  43  61 N5        29.90F
NWS MEMPHIS      N/A     51 N/A N/A MISG        N/A
JACKSON        CLEAR     46  42  86 SW3       29.87F
DYERSBURG      CLEAR     48  43  81 CALM      29.87F
UNION CITY     PTCLDY    46  45  93 CALM      29.85F
LEXINGTON      CLEAR     43  43 100 CALM      29.84F
$$

TNZ008-025-027-028-033-062-065-066-050900-
NORTH MIDDLE TENNESSEE

CITY           SKY/WX    TMP DP  RH WIND       PRES   REMARKS
NASHVILLE      MOCLDY    48  40  73 CALM      29.82F
CLARKSVILLE    PTCLDY    44  41  89 W5        29.82F
SMYRNA         PTCLDY    47  42  82 CALM      29.83F
COOKEVILLE     CLEAR     45  43  93 NW3       29.78S
CROSSVILLE     CLEAR     43  40  89 NW6       29.77F
$$

TNZ061-075-076-078-094-096-097-050900-
SOUTH MIDDLE TENNESSEE

CITY           SKY/WX    TMP DP  RH WIND       PRES   REMARKS
FAYETTEVILLE   CLEAR     48  43  81 N6        29.82F
TULLAHOMA      CLEAR     39  39 100 NW3       29.82F
WINCHESTER     CLEAR     46  43  87 N5        29.82S
MCMINNVILLE    CLEAR     46  43  87 W5        29.80F
COLUMBIA       CLEAR    N/A N/A N/A CALM      29.82F
SHELBYVILLE    CLEAR     45  43  93 CALM      29.84S
$$

TNZ017-018-042-046-047-050900-
NORTHEAST TENNESSEE

CITY           SKY/WX    TMP DP  RH WIND       PRES   REMARKS
TRI CITIES     CLOUDY    46  43  89 W6        29.70F
$$

TNZ012-013-036-069-073-074-050900-
CENTRAL EAST TENNESSEE

CITY           SKY/WX    TMP DP  RH WIND       PRES   REMARKS
KNOXVILLE      CLOUDY    49  44  83 NW5       29.74S
OAK RIDGE      MOCLDY    47  44  90 CALM      29.76F
GATLINBURG     CLOUDY    46  45  93 W3        29.73S
MORRISTOWN     PTSUNNY   46  45  93 CALM      29.71F
$$

TNZ083-085-099-050900-
SOUTHEAST TENNESSEE

CITY           SKY/WX    TMP DP  RH WIND       PRES   REMARKS
CHATTANOOGA    CLEAR     49  45  86 NW5       29.78S
$$

SKY/WX REPORTED AS FAIR MEANS FEW OR NO CLOUDS BELOW
12 THOUSAND FEET.




USA.gov is the U.S. government's official web portal to all federal, state and local government web resources and services.